Flag for U.S.A. Weather past 2 weeks in Springfield, Illinois, U.S.A.

Now
69 °F

Sunny.


Feels Like: 69 °F
Forecast: 49 / 72 °F
Wind: 9 mph from East

Location: Capital Airport

Current Time: Sep 18, 2014 at 11:35:14 AM

Latest Report: Sep 18, 2014 at 10:52 AM


Visibility: 10 mi

Pressure: 30.10 "Hg

Humidity: 61%

Dew point: 55 °F

Location of SpringfieldLocation

Historic Weather in Springfield — Graph

°F

Springfield temperature yesterday

Maximum temperature yesterday: 67 °F (at 2:52 PM)
Minimum temperature yesterday: 46 °F (at 2:59 AM)
Average temperature yesterday: 57 °F

Past Weeks' High & Low Weather Summary

 TemperatureHumidityPressure
High94 °F (Sep 5, 1:52 PM)97% (Sep 8, 6:52 AM)30.41 "Hg (Sep 8, 6:52 AM)
Low41 °F (Sep 13, 5:52 AM)38% (Sep 14, 5:52 PM)29.64 "Hg (Sep 10, 1:52 PM)
Average64 °F77%30.09 "Hg
* Reported Sep 3 9:52 AM — Sep 18 9:52 AM, Springfield, Weather by CustomWeather, © 2014

Note: Actual official high and low records may vary slightly from our data, if they occured in-between our weather recording intervals... More about our weather records

Advertising

Springfield weather history for previous 24 hours

 ConditionsComfort  
Time TempWeatherWind HumidityBarometerVisibility
9:52 AM
Sep 18
65 °FSunny.5 mph70%30.10 "Hg10 mi
8:52 AM59 °FSunny.7 mph81%30.10 "Hg10 mi
7:52 AM55 °FSunny.3 mph87%30.07 "Hg10 mi
6:52 AM48 °FClear.3 mph93%30.07 "Hg10 mi
5:59 AM48 °FClear.No wind93%30.06 "Hg10 mi
4:52 AM50 °FClear.No wind93%30.03 "Hg7 mi
3:52 AM52 °FClear.7 mph93%30.00 "Hg7 mi
2:52 AM51 °FFog.3 mph89%30.02 "Hg6 mi
1:52 AM50 °FFog.No wind93%30.03 "Hg6 mi
12:52 AM51 °FFog.No wind92%30.02 "Hg6 mi
11:52 PM
Sep 17
52 °FClear.No wind93%30.02 "Hg10 mi
10:52 PM53 °FClear.3 mph89%30.02 "Hg10 mi
9:52 PM57 °FPassing clouds.No wind90%30.01 "Hg10 mi
8:52 PM59 °FMostly cloudy.No wind81%30.01 "Hg10 mi
7:52 PM61 °FMore clouds than sun.5 mph72%29.99 "Hg10 mi
6:52 PM62 °FPassing clouds.6 mph70%29.97 "Hg10 mi
5:52 PM66 °FSunny.5 mph63%29.95 "Hg10 mi
4:52 PM66 °FMore clouds than sun.3 mph56%29.96 "Hg10 mi
3:52 PM66 °FCloudy.6 mph61%29.97 "Hg10 mi
2:52 PM67 °FPartly sunny.8 mph59%29.98 "Hg10 mi
1:52 PM66 °FPartly sunny.7 mph61%30.01 "Hg10 mi
12:52 PM66 °FBroken clouds.9 mph61%30.03 "Hg10 mi
11:52 AM64 °FOvercast.8 mph65%30.04 "Hg10 mi
Weather by CustomWeather, © 2014

See weather overviewHow to use our weather pages